Погода в Семипалатинске

Погода в Семипалатинске : погода сейчас, прогноз погоды и архив. Всё, что Вы хотите узнать о погоде в Семипалатинске!

Хотите узнать прогноз погоды в Семипалатинске? Тогда Вам сюда: Погода в Семипалатинске

Поиск расширенной информации на нашем сайте:

Другие новости

Новости СМИ2

Главная страница сайта

Новости сайта

03.07.2017

Напоминаем, что на нашем специализированном сайте Метеоцентр.Азия вы можете получить высокодетализированные автоматические прогнозы погоды по пунктам России, СНГ и мира в авиационном формате (включающие направление и скорость ветра, видимость, явления погоды, количество и форму облачности, нижнюю и верхнюю границу облачности).

Рекомендуем: игры драки на http://proxgame.com

Погода в Семипалатинске - сегодня

Время (UTC), дата Ветер
(°,м/с) 
Видим.   Явления Облачность Т
(°С)
Тd
(°С)
f(%) Тe
(°С)
Pmin
(гПа)
dP
(гПа)
Po
(мм)
O2
(г/м3)
Тmin Tmax R s Состояние
почвы
12 20.08.17 320 (СЗ) 10 км  {ливн. осадки}  4/3 600 м кучево-дожд., средняя 
[Cb calv|Ac trans]
+20.1 +3.8 34 +20  1021.3  -0.6  749  280           
15 20.08.17 320 (СЗ) н/о  {ливн. осадки}  4/3 600 м кучево-дожд., средняя, верхняя 
[Cb calv|Ac trans|Ci fib]
+15.2 +7.1 58 +17  1022.8  1.1  750  285    +20.2  0.1     
18 20.08.17 тихо ()   н/о  {ливн. осадки}  3/3 1000 м 
[Sc diur, vesp]
+9.8 +7.3 84 +10  1023.5  0.3  750  290    +20.2  0.1     
21 20.08.17 тихо ()   н/о    3/0 средняя, верхняя 
[Ac trans|Ci fib]
+6.3 +5.2 93 +6  1023.5  -0.3  750  294           
00 21.08.17 тихо ()   10 км    6/0 верхняя 
[Ci fib]
+4.6 +3.6 93 +5  1024.1  0.4  750  297           
03 21.08.17 тихо ()   10 км    3/0 верхняя 
[Ci fib]
+14 +7.5 65 +14  1023.8  0.5  750  286           
06 21.08.17 340 (С) 10 км    4/4 1000 м 
[Cu med, cong]
+21 +5.8 37 +21  1022.4  -0.8  750  280  +4.5         
09 21.08.17 320 (СЗ) 10 км    6/6 1000 м 
[Cu med, cong]
+21.7 +3.7 31 +22  1021.3  -1  749  279           
12 21.08.17 340 (С) 10 км    3/3 1000 м 
[Sc diur, vesp]
+22.6 +3.4 28 +23  1021.1  -0.2  749  278           
15 21.08.17 320 (СЗ) н/о    9/1 1000 м верхняя 
[Sc diur, vesp|Ci fib]
+16.6 +5.9 49 +18  1021.9  0.4  749  284    +23       
18 21.08.17 тихо ()   н/о    4/0 верхняя 
[Ci fib]
+11.3 +4.4 62 +11  1022.5  0.1  749  289    +23       
21 21.08.17 тихо ()   н/о    1/0 верхняя 
[Ci fib]
+9.3 +5.3 76 +9  1022.3  -0.3  749  291           
00 22.08.17 тихо ()   10 км    ясно 
+8 +6 87 +8  1022.5  0.1  749  292           
03 22.08.17 тихо ()   10 км    ясно 
+18.4 +8.6 53 +18  1022.2  0.5  749  281           
06 22.08.17 340 (С) 10 км    8/8 1000 м 
[Cu med, cong]
+22.5 +5.3 33 +23  1021.3  -0.6  749  278  +7.9         
09 22.08.17 360 (С) 10 км    6/6 1000 м 
[Cu med, cong]
+24.1 +4.5 28 +24  1020  -1.1  748  276           
12 22.08.17 020 (С) 10 км    1/1 1000 м 
[Sc diur, vesp]
+23.5 +4.6 29 +24  1019.9  -0.2  748  277           
15 22.08.17 010 (С) н/о    ясно 
+18.1 +6.7 47 +19  1021.2  0.9  749  282    +24.8       
18 22.08.17 тихо ()   н/о    ясно 
+14.1 +6.9 62 +14  1021.7  0.2  749  286    +24.8       
21 22.08.17 тихо ()   н/о    ясно 
+10.8 +6.8 76 +11  1022.3  0.3  749  289           
00 23.08.17 тихо ()   4000 м  дымка  3/0 средняя 
[Ac trans]
+8.1 +6.1 87 +8  1023.1  0.6  749  292           
03 23.08.17 тихо ()   10 км    3/0 средняя 
[Ac trans]
+17.9 +11.1 64 +21  1023.1  0.8  750  282           
06 23.08.17 360 (С) 10 км    1/0 средняя 
[Ac trans]
+25.7 +9.3 35 +26  1021.8  -0.7  750  274  +7.5         
09 23.08.17 340 (С) 10 км    9/9 600 м кучево-дожд. 
[Cb calv]
+26.7 +9.8 35 +28  1020.6  -1.1  749  273           
12 23.08.17 360 (С) 10 км    8/6 600 м кучево-дожд., средняя 
[Cb calv|Ac trans]
+25.7 +12.2 43 +30  1021  0.3  749  274           
Время (UTC), дата Ветер
(°,м/с) 
Видим.   Явления Облачность Т
(°С)
Тd
(°С)
f(%) Тe
(°С)
Pmin
(гПа)
dP
(гПа)
Po
(мм)
O2
(г/м3)
Тmin Tmax R s Состояние
почвы

Для получения пояснительной информации подведите курсор к названию столбца.

ПОГОДА в Семипалатинске - архив

Всё, что Вы хотите узнать о погоде в Семипалатинске - удобно и подробно!

Выберите нужную дату (начиная с 1 января 2015* года) и нажмите кнопку "Найти".
Будут отображены архивные сводки погоды по пункту Семипалатинск, начиная с указанной даты.


Отображать данные в формате CSV (для использования в таблицах Excel)


Внимание! Наш архив погоды предназначен исключительно для личного некоммерческого использования в познавательных целях. Если Вам необходимы официальные справки о состоянии погоды (для производственных, юридических, коммерческих и т.п. целей), обращайтесь в органы Росгидромета.

*Примечание: данная дата относится к архиву по метеостанциям СССР (Россия, СНГ, Балтия).
Архив по метеостанциям Зарубежной Европы и Азии (кроме Китая) хранится 10 дней, по другим регионам земного шара (Китай, Африка, Америка, Австралия, Океания) - 1 день.

Семипалатинск - район местоположения метеостанции


Название, широта, долгота, высота метеостанции:
Семипалатинск 50.4°ш. 80.3°д. 196 м над ур. моря [Казахстан]

Дополнительная информация

В oтличие oт бoльшинства пoгoдных сайтoв мы публикуем пoдрoбную метеoинфoрмацию в детальнoм прoфессиoнальнoм фoрмате.

Характеристики температуры и влажнoсти вoздуха измеряются на высoте 2 м в тени вдали oт зданий и деревьев.
Скoрoсть ветра измеряется на высoте 10 м (на урoвне рoста челoвека скoрoсть ветра ниже в 1.5-2 раза). Если метеoстанция нахoдится в гoрoде или в лесу, тo скoрoсть ветра занижена на 2-4 м/с пo сравнению с oткрытым местoм. Скoрoсть ветра над акватoриями крупных рек и oзёр, а также на вершинах хoлмoв на 2-5 м/с выше, чем в oбычных услoвиях.
Атмoсфернoе давление в разных тoчках местнoсти мoжет значительнo oтличаться oт давления на метеoстанции, в зависимoсти oт услoвий рельефа (при пoдъёме на 10 м давление пoнижается примернo на 1 мм рт.ст.).